Location: Newark
(34.4697°S, 57.8467°W)
Time: 09:31:43
(UTC+00:00)

N. Korean satellite - Pass Details

Date: 25 July 2019
Orbit: 457 x 507 km, 97.2° (Epoch: 25 August)

Event Time Altitude Azimuth Distance (km) Brightness Sun altitude
Rises 22:04:19 0° 175° (S) 2,519 10.0 -12.2°
Reaches altitude 10° 22:06:26 10° 180° (S) 1,632 9.1 -12.6°
Maximum altitude 22:09:49 49° 256° (WSW) 608 7.4 -13.3°
Drops below altitude 10° 22:13:09 10° 331° (NNW) 1,605 9.8 -13.9°
Sets 22:15:12 0° 337° (NNW) 2,473 10.7 -14.4°
